Content
SEND FEEDBACK

Daily
Averages
Monthly
Summary
United States of America

VALENCIA HEIGHTS, SOUTH CAROLINA


Home > North America > United States > South Carolina
Elevation: 202 feet     Latitude: 33 59N     Longitude: 081 01W

WEATHER
 
SELECT A DAY
Number of Records: 157,276;   Date Range: 10/15/98 - 7/29/14
 
SHARE

PRINT THIS DATA

[ ← Previous Day ]
WEATHER ALMANAC - FEBRUARY 13, 2013
[ Next Day → ]
[ °C ]   °F
Weather ElementAverageHighLow
Temperature51.1 °F57.9 °F (1:53 pm)48 °F (5:53 am)
Dewpoint48 °F53.6 °F (1:20 pm)41 °F (9:53 pm)
Humidity89.6 %100 % (3:00 am)68 % (9:53 pm)
Barometer29.79 in29.90 in (11:53 pm)29.71 in (12:53 pm)
Wind Speed4.7 mph23 mph (2:46 pm)
Wind Gust27.6 mph (2:46 pm)
Weather ElementAverage
Visibility5.7 mi
Wind DirectionSE (131.6 °)

Weather ElementTotal
Precipitation0.11 in
Heating Degree Days12.1 (Base 65)
Growing Degree Days3 (Base 50)
Averaged from 45 records on February 13, 2013
WEATHER CONDITIONS BREAKOUT
WIND DIRECTION BREAKOUT
WEATHER BY HOUR - FEBRUARY 13, 2013
[ °C ]   °F
Local TimeTemperatureDewpointHumidityBarometerVisibilityWind DirectionWind SpeedGust SpeedPrecipitationEventsConditions
1:53 AM48.9 °F46.9 °F93 %29.86 in6.0 miCalm0.03 inRainLight Rain
2:01 AM48.2 °F46.4 °F93 %29.86 in6.0 miCalm0.00 inRainLight Rain
2:53 AM48.9 °F48.0 °F97 %29.82 in4.0 miESE (110°)3.5 mph0.02 inOvercast
3:00 AM48.2 °F48.2 °F100 %29.83 in5.0 miVariable4.6 mphOvercast
3:53 AM50.0 °F48.0 °F93 %29.83 in5.0 miCalm0.01 inOvercast
4:53 AM48.9 °F48.0 °F97 %29.82 in10.0 miCalm0.00 inOvercast
5:29 AM48.2 °F46.4 °F93 %29.81 in8.0 miVariable3.5 mphOvercast
5:53 AM48.0 °F46.0 °F93 %29.80 in6.0 miCalmOvercast
6:04 AM48.2 °F46.4 °F93 %29.79 in3.0 miESE (110°)3.5 mphOvercast
6:13 AM48.2 °F46.4 °F93 %29.81 in2.5 miCalm0.01 inOvercast
6:49 AM48.2 °F46.4 °F93 %29.79 in3.0 miCalm0.01 inOvercast
6:53 AM48.0 °F46.9 °F96 %29.78 in3.0 miENE (70°)3.5 mph0.01 inOvercast
7:53 AM48.0 °F46.9 °F96 %29.81 in3.0 miCalmOvercast
8:01 AM48.2 °F46.4 °F93 %29.78 in2.5 miVariable3.5 mphOvercast
8:08 AM48.2 °F46.4 °F93 %29.84 in2.0 miNW (310°)6.9 mphOvercast
8:34 AM48.2 °F46.4 °F93 %29.81 in1.8 miCalmOvercast
8:50 AM48.2 °F46.4 °F93 %29.82 in2.5 miCalmOvercast
8:53 AM48.0 °F46.9 °F96 %29.80 in2.5 miESE (120°)3.5 mphOvercast
9:02 AM48.2 °F46.4 °F93 %29.79 in2.5 miESE (120°)4.6 mphOvercast
9:29 AM48.2 °F48.2 °F100 %29.77 in3.0 miVariable4.6 mphOvercast
9:53 AM48.9 °F48.0 °F97 %29.81 in4.0 miCalmOvercast
10:53 AM51.1 °F50.0 °F96 %29.76 in3.0 miVariable3.5 mphOvercast
11:02 AM51.8 °F50.0 °F94 %29.78 in2.5 miSW (220°)3.5 mphOvercast
11:21 AM51.8 °F50.0 °F94 %29.77 in1.2 miSSW (200°)3.5 mphOvercast
11:31 AM51.8 °F50.0 °F94 %29.76 in1.0 miVariable3.5 mphOvercast
11:53 AM51.1 °F51.1 °F100 %29.78 in1.2 miWest (260°)4.6 mphOvercast
12:46 PM53.6 °F51.8 °F94 %29.74 in2.0 miWSW (250°)5.8 mphOvercast
12:53 PM53.1 °F52.0 °F96 %29.71 in2.5 miCalmOvercast
1:06 PM53.6 °F51.8 °F94 %29.75 in4.0 miWest (280°)5.8 mphOvercast
1:20 PM55.4 °F53.6 °F94 %29.72 in6.0 miVariable3.5 mphOvercast
1:39 PM57.2 °F53.6 °F88 %29.71 in10.0 miWest (260°)8.1 mphOvercast
1:53 PM57.9 °F53.1 °F84 %29.71 in10.0 miWSW (250°)16.1 mph24.2 mphMostly Cloudy
2:46 PM57.2 °F48.2 °F72 %29.75 in10.0 miWest (270°)23.0 mph27.6 mphOvercast
2:53 PM57.9 °F48.9 °F72 %29.72 in10.0 miWest (280°)18.4 mph27.6 mph0.00 inRainLight Rain
3:53 PM55.0 °F48.0 °F77 %29.74 in10.0 miWest (270°)10.4 mph0.01 inRainLight Rain
4:53 PM54.0 °F48.0 °F80 %29.75 in10.0 miSW (220°)5.8 mph0.00 inOvercast
5:53 PM53.1 °F48.0 °F83 %29.78 in10.0 miSSW (210°)5.8 mphPartly Cloudy
6:53 PM53.1 °F48.9 °F86 %29.79 in10.0 miWSW (240°)3.5 mphPartly Cloudy
7:22 PM53.6 °F48.2 °F82 %29.79 in10.0 miWSW (250°)5.8 mphOvercast
7:53 PM53.1 °F48.9 °F86 %29.80 in10.0 miWSW (250°)4.6 mphOvercast
8:34 PM53.6 °F48.2 °F82 %29.82 in10.0 miWest (270°)6.9 mphMostly Cloudy
8:53 PM53.1 °F48.0 °F83 %29.83 in10.0 miWest (270°)9.2 mphMostly Cloudy
9:53 PM51.1 °F41.0 °F68 %29.86 in10.0 miWest (270°)10.4 mph0.01 inClear
10:53 PM50.0 °F41.0 °F71 %29.88 in10.0 miWNW (290°)5.8 mphClear
11:53 PM48.9 °F41.0 °F74 %29.90 in10.0 miWest (270°)3.5 mphClear
Hourly data recorded from KCUB, located miles away from Valencia Heights, South Carolina







STORIES FROM OUR PARTNERS